Regional Weather Roundup
Issued by NWS Newport/Morehead, NC

Current Version | Previous Version | Text Only | Print | Product List | Glossary Off
Versions: 1 2 3 4 5 6 7 8 9 10 11 12 13 14 15 16 17 18 19 20 21 22 23 24 25 26 27 28 29 30 31 32 33 34 35 36 37 38 39 40 41 42 43 44 45 46 47 48 49 50
000 ASUS42 KMHX 272022 RWRMHX WEATHER ROUNDUP FOR EASTERN NORTH CAROLINA NATIONAL WEATHER SERVICE NEWPORT/MOREHEAD CITY NC 300 PM EST SAT DEC 27 2014 NOTE: "FAIR" INDICATES FEW OR NO CLOUDS BELOW 12,000 FEET WITH NO SIGNIFICANT WEATHER AND/OR OBSTRUCTIONS TO VISIBILITY NCZ015>017-031-032-045>047-102-103-272100- NORTH COAST CITY SKY/WX TMP DP RH WIND PRES REMARKS EDENTON SUNNY 60 40 47 S5 30.24S ELIZABETH CITY SUNNY 62 37 39 S8 30.23F KITTY HAWK CLEAR 56 42 59 SE6 30.23R MANTEO SUNNY 55 41 58 S7 30.25R $$ NCZ045>047-081-094-103-104-272100- CENTRAL COAST CITY SKY/WX TMP DP RH WIND PRES REMARKS FRISCO SUNNY 57 42 57 CALM 30.25F SWANQUARTER N/A 59 N/A N/A S5 30.21S $$ NCZ095-097-098-100-101-272100- SOUTHERN COAST CITY SKY/WX TMP DP RH WIND PRES REMARKS BEAUFORT SUNNY 58 41 53 S8 30.25S CEDAR ISLAND N/A 52 N/A N/A E3 30.27F JACKSONVILLE SUNNY 61 43 51 SE8 30.25S PINEY ISLAND CLEAR 58 37 45 E7 30.25S WILMINGTON SUNNY 63 44 50 SE7 30.24F $$ NCZ011>013-027>030-043-044-078>080-089-090>093-098-272100- COASTAL PLAIN CITY SKY/WX TMP DP RH WIND PRES REMARKS AHOSKIE SUNNY 60 36 41 S5 30.24R CLINTON SUNNY 63 38 39 CALM 30.24F ELIZABETHTOWN SUNNY 63 38 40 SW5 30.23F GOLDSBORO SUNNY 63 40 43 S5 30.22F GREENVILLE SUNNY 61 37 41 S8 30.25S HAVELOCK SUNNY 64 42 44 S8 30.25F KENANSVILLE SUNNY 63 32 31 W6 30.25S KINSTON SUNNY 63 36 36 SW7 30.25S NEW BERN SUNNY 63 41 44 E3 30.25F RICHLANDS SUNNY 63 37 39 SW8 30.25R ROCKY MOUNT SUNNY 61 38 42 SW7 30.24R WASHINGTON SUNNY 60 37 41 SW6 30.24F WHITEVILLE SUNNY 64 43 45 S7 30.23F $$ AMZ130-135-150-152-154-156-158-170-250-252-270-ANZ085-086-088-633-658-670-272100- MARINE OBSERVATIONS STATION/POSITION TIME TEMP WIND PRES WAVE SWELL AIR SEA DIR/SP/G HT/PER HT/PER (UTC) (F) (DEG/KT/KT) (MB) (FT/S) (FT/S) CHESAPEAKE LIGHT 2000 53 1023.8 64 E VA BEACH 2000 53 53 200/ 6/ 6 1023.8 3/16 3/16 DUCK 2000 55 48 140/ 8/ 10 1023.2 2 E DUCK 2000 50 N/A 2/17 2/17 10 NE DUCK 2000 51 N/A 3/15 2/15 OREGON INLET 2000 55 53 160/ 5/ 6 1024.2 13E OREGON INLT 2000 52 N/A 3/17 3/17 HATTERAS CG 2000 54 53 330/ 1/ 2 1024.8 DIAMOND BUOY 2000 61 1024.9 3/16 17 S OCRACOKE NOT AVBL CAPE LOOKOUT 2000 56 150/ 3/ 3 1024.3 BEAUFORT LAB 2000 57 54 190/ 6/ 6 1023.4 30 SE NEW RIVER 2000 59 62 150/ 8/ 10 1024.6 2/16 2/16 5 SE WRIGHTSVLE NOT AVBL 225 S CAPE HAT 1854 69 74 110/ 6/ 10 1025.0 4/16 5/16 41 SE CHARLESTON 2000 65 74 40/ 12/ 14 1023.5 3/ 4 2/ 8 $$

USA.gov is the U.S. government's official web portal to all federal, state and local government web resources and services.